| time (UTC) | temp C | wind direction | speed KPH | gust KPH | rain 1hr cm | rain 24hr cm | rain mn cm | humidity % | barometer mb |
| 20260507060330 | 18 | 2 | 4.8 | 16.1 | 0.00 | 0.08 | 0.00 | 83 | 1014.2 |
| 20260507055357 | 18 | 304 | 6.4 | 22.5 | 0.00 | 0.08 | 0.00 | 83 | 1014.3 |
| 20260507054402 | 18 | 301 | 6.4 | 17.7 | 0.00 | 0.08 | 0.00 | 83 | 1013.9 |
| 20260507053325 | 19 | 29 | 4.8 | 20.9 | 0.00 | 0.08 | 0.00 | 82 | 1013.7 |
| 20260507052334 | 19 | 2 | 9.7 | 24.1 | 0.00 | 0.08 | 0.00 | 82 | 1013.9 |
| 20260507051343 | 19 | 281 | 9.7 | 20.9 | 0.00 | 0.08 | 0.00 | 82 | 1013.7 |
| 20260507050328 | 19 | 350 | 6.4 | 24.1 | 0.00 | 0.08 | 0.00 | 82 | 1013.8 |
| 20260507045337 | 19 | 309 | 6.4 | 16.1 | 0.00 | 0.08 | 0.08 | 82 | 1014.0 |
| 20260507044342 | 19 | 22 | 6.4 | 22.5 | 0.00 | 0.08 | 0.08 | 82 | 1013.7 |
| 20260507043348 | 19 | 360 | 9.7 | 24.1 | 0.00 | 0.08 | 0.08 | 81 | 1013.8 |
| 20260507042334 | 19 | 345 | 8.0 | 24.1 | 0.00 | 0.08 | 0.08 | 81 | 1013.8 |
| 20260507041324 | 20 | 17 | 6.4 | 22.5 | 0.00 | 0.08 | 0.08 | 81 | 1013.8 |
| 20260507040348 | 20 | 335 | 6.4 | 25.7 | 0.00 | 0.08 | 0.08 | 81 | 1013.5 |
| 20260507035354 | 20 | 354 | 8.0 | 25.7 | 0.00 | 0.08 | 0.08 | 81 | 1013.5 |
| 20260507034342 | 20 | 321 | 8.0 | 16.1 | 0.00 | 0.08 | 0.08 | 81 | 1013.4 |
| 20260507033328 | 20 | 345 | 6.4 | 20.9 | 0.00 | 0.08 | 0.08 | 80 | 1013.4 |
| 20260507032335 | 20 | 345 | 9.7 | 19.3 | 0.00 | 0.08 | 0.08 | 80 | 1013.6 |
| 20260507031344 | 20 | 301 | 8.0 | 19.3 | 0.00 | 0.08 | 0.08 | 80 | 1013.3 |
| 20260507030332 | 21 | 1 | 6.4 | 25.7 | 0.00 | 0.08 | 0.08 | 79 | 1013.0 |
| 20260507025324 | 21 | 340 | 8.0 | 22.5 | 0.00 | 0.08 | 0.08 | 80 | 1012.9 |
| 20260507024332 | 21 | 333 | 9.7 | 20.9 | 0.00 | 0.08 | 0.08 | 80 | 1012.8 |
| 20260507023338 | 21 | 3 | 6.4 | 19.3 | 0.00 | 0.08 | 0.08 | 80 | 1012.4 |
| 20260507022326 | 21 | 335 | 4.8 | 16.1 | 0.00 | 0.08 | 0.08 | 81 | 1012.3 |
| 20260507021334 | 21 | 345 | 9.7 | 20.9 | 0.00 | 0.08 | 0.08 | 81 | 1011.9 |
| 20260507020340 | 21 | 356 | 4.8 | 14.5 | 0.00 | 0.08 | 0.08 | 81 | 1011.7 |
| 20260507015329 | 21 | 335 | 4.8 | 14.5 | 0.00 | 0.08 | 0.08 | 80 | 1011.5 |
| 20260507014402 | 21 | 323 | 4.8 | 12.9 | 0.00 | 0.08 | 0.08 | 80 | 1011.3 |
| 20260507013327 | 21 | 328 | 6.4 | 17.7 | 0.00 | 0.08 | 0.08 | 79 | 1011.3 |
| 20260507012334 | 21 | 292 | 8.0 | 19.3 | 0.00 | 0.08 | 0.08 | 79 | 1011.0 |
| 20260507011339 | 21 | 360 | 6.4 | 20.9 | 0.00 | 0.08 | 0.08 | 79 | 1010.8 |
| 20260507010323 | 22 | 323 | 6.4 | 16.1 | 0.00 | 0.08 | 0.08 | 79 | 1010.8 |
| 20260507005331 | 22 | 316 | 8.0 | 19.3 | 0.00 | 0.08 | 0.08 | 79 | 1010.5 |
| 20260507004337 | 22 | 323 | 9.7 | 22.5 | 0.00 | 0.08 | 0.08 | 79 | 1010.3 |
| 20260507003325 | 22 | 345 | 6.4 | 22.5 | 0.00 | 0.08 | 0.08 | 79 | 1010.3 |
| 20260507002332 | 22 | 318 | 8.0 | 29.0 | 0.00 | 0.08 | 0.08 | 79 | 1010.2 |
| 20260507001339 | 22 | 287 | 9.7 | 20.9 | 0.00 | 0.08 | 0.08 | 79 | 1010.0 |
| 20260507000324 | 22 | 350 | 8.0 | 20.9 | 0.00 | 0.08 | 0.08 | 79 | 1009.9 |
| 20260506235333 | 22 | 333 | 9.7 | 22.5 | 0.00 | 0.08 | 0.08 | 78 | 1009.8 |
| 20260506234359 | 22 | 300 | 8.0 | 25.7 | 0.00 | 0.08 | 0.08 | 78 | 1009.8 |
| 20260506233324 | 23 | 304 | 11.3 | 25.7 | 0.00 | 0.08 | 0.08 | 78 | 1009.5 |
| 20260506232333 | 24 | 289 | 11.3 | 27.4 | 0.00 | 0.08 | 0.08 | 78 | 1009.5 |
| 20260506231340 | 26 | 279 | 12.9 | 25.7 | 0.00 | 0.08 | 0.08 | 74 | 1009.3 |
| 20260506230325 | 28 | 288 | 4.8 | 9.7 | 0.00 | 0.08 | 0.08 | 83 | 1008.7 |
| 20260506225330 | 28 | 330 | 6.4 | 16.1 | 0.00 | 0.08 | 0.08 | 82 | 1008.7 |
| 20260506224336 | 29 | 350 | 3.2 | 8.0 | 0.00 | 0.08 | 0.08 | 83 | 1008.6 |
| 20260506223340 | 29 | 354 | 3.2 | 4.8 | 0.00 | 0.08 | 0.08 | 83 | 1008.7 |
| 20260506222327 | 28 | 11 | 1.6 | 4.8 | 0.00 | 0.08 | 0.08 | 83 | 1008.7 |
| 20260506221337 | 29 | 340 | 0.0 | 1.6 | 0.00 | 0.08 | 0.08 | 83 | 1008.6 |
| 20260506220342 | 29 | 350 | 3.2 | 4.8 | 0.00 | 0.08 | 0.08 | 82 | 1008.6 |
| 20260506215332 | 29 | 340 | 0.0 | 4.8 | 0.00 | 0.08 | 0.08 | 82 | 1008.6 |
| 20260506214341 | 29 | 290 | 0.0 | 0.0 | 0.00 | 0.08 | 0.08 | 80 | 1008.5 |
| 20260506213346 | 28 | 350 | 0.0 | 0.0 | 0.00 | 0.08 | 0.08 | 80 | 1008.4 |
| 20260506212330 | 28 | 350 | 0.0 | 0.0 | 0.00 | 0.08 | 0.08 | 81 | 1008.5 |
| 20260506211337 | 28 | 300 | 0.0 | 0.0 | 0.00 | 0.08 | 0.08 | 82 | 1008.6 |
| 20260506210326 | 28 | 288 | 0.0 | 0.0 | 0.00 | 0.08 | 0.08 | 83 | 1008.7 |
| 20260506205332 | 28 | 156 | 0.0 | 0.0 | 0.00 | 0.08 | 0.08 | 82 | 1008.6 |
| 20260506204338 | 28 | 202 | 0.0 | 0.0 | 0.00 | 0.08 | 0.08 | 82 | 1008.7 |
| 20260506203342 | 28 | 308 | 0.0 | 4.8 | 0.00 | 0.08 | 0.08 | 82 | 1008.9 |
| 20260506202330 | 28 | 200 | 1.6 | 6.4 | 0.00 | 0.08 | 0.08 | 80 | 1008.8 |
| 20260506201338 | 28 | 202 | 0.0 | 3.2 | 0.00 | 0.08 | 0.08 | 81 | 1009.1 |
| 20260506200341 | 28 | 125 | 4.8 | 6.4 | 0.00 | 0.08 | 0.08 | 81 | 1009.2 |
| 20260506195328 | 28 | 127 | 3.2 | 8.0 | 0.00 | 0.08 | 0.08 | 81 | 1009.1 |
| 20260506194339 | 28 | 122 | 0.0 | 6.4 | 0.00 | 0.08 | 0.08 | 80 | 1009.2 |
| 20260506193342 | 28 | 125 | 1.6 | 6.4 | 0.00 | 0.08 | 0.08 | 82 | 1009.2 |
| 20260506192330 | 28 | 108 | 1.6 | 6.4 | 0.03 | 0.08 | 0.08 | 82 | 1009.4 |
| 20260506191339 | 28 | 131 | 6.4 | 8.0 | 0.03 | 0.08 | 0.08 | 83 | 1009.5 |
| 20260506190341 | 28 | 129 | 1.6 | 8.0 | 0.03 | 0.08 | 0.08 | 82 | 1009.6 |
| 20260506185349 | 28 | 82 | 3.2 | 4.8 | 0.03 | 0.08 | 0.08 | 84 | 1009.6 |
| 20260506184336 | 27 | 34 | 0.0 | 1.6 | 0.03 | 0.08 | 0.08 | 85 | 1009.8 |
| 20260506183345 | 27 | 107 | 1.6 | 6.4 | 0.05 | 0.08 | 0.08 | 85 | 1009.8 |
| 20260506182351 | 27 | 130 | 0.0 | 4.8 | 0.03 | 0.05 | 0.05 | 86 | 1010.0 |
| 20260506181336 | 27 | 117 | 3.2 | 6.4 | 0.03 | 0.05 | 0.05 | 87 | 1010.1 |
| 20260506180338 | 26 | 135 | 0.0 | 4.8 | 0.03 | 0.05 | 0.05 | 89 | 1010.3 |
| 20260506175325 | 26 | 123 | 0.0 | 3.2 | 0.03 | 0.05 | 0.05 | 90 | 1010.5 |
| 20260506174352 | 26 | 188 | 1.6 | 4.8 | 0.03 | 0.05 | 0.05 | 89 | 1010.8 |
| 20260506173336 | 26 | 110 | 1.6 | 4.8 | 0.00 | 0.03 | 0.03 | 88 | 1010.9 |
| 20260506172324 | 26 | 23 | 0.0 | 1.6 | 0.03 | 0.03 | 0.03 | 90 | 1011.0 |
| 20260506171355 | 26 | 4 | 0.0 | 1.6 | 0.03 | 0.03 | 0.03 | 90 | 1011.2 |
| 20260506170400 | 26 | 4 | 0.0 | 1.6 | 0.03 | 0.03 | 0.03 | 90 | 1011.2 |
| 20260506165328 | 26 | 128 | 0.0 | 0.0 | 0.03 | 0.03 | 0.03 | 90 | 1011.3 |
| 20260506164336 | 26 | 128 | 0.0 | 1.6 | 0.03 | 0.03 | 0.03 | 89 | 1011.2 |
| 20260506163359 | 26 | 129 | 0.0 | 6.4 | 0.03 | 0.03 | 0.03 | 87 | 1011.1 |
| 20260506162324 | 26 | 123 | 1.6 | 6.4 | 0.00 | 0.00 | 0.00 | 86 | 1011.0 |
| 20260506161331 | 26 | 128 | 3.2 | 8.0 | 0.00 | 0.00 | 0.00 | 85 | 1010.9 |
| 20260506160334 | 26 | 130 | 3.2 | 11.3 | 0.00 | 0.00 | 0.00 | 86 | 1010.5 |
| 20260506155325 | 26 | 140 | 0.0 | 4.8 | 0.00 | 0.00 | 0.00 | 87 | 1010.5 |
| 20260506154333 | 26 | 130 | 0.0 | 3.2 | 0.00 | 0.00 | 0.00 | 87 | 1010.4 |
| 20260506153340 | 26 | 121 | 1.6 | 8.0 | 0.00 | 0.00 | 0.00 | 87 | 1010.4 |
| 20260506152327 | 26 | 142 | 0.0 | 6.4 | 0.00 | 0.00 | 0.00 | 87 | 1010.5 |
| 20260506151335 | 26 | 133 | 3.2 | 6.4 | 0.00 | 0.00 | 0.00 | 87 | 1010.5 |
| 20260506150358 | 26 | 141 | 1.6 | 8.0 | 0.00 | 0.00 | 0.00 | 87 | 1010.3 |
| 20260506145326 | 26 | 130 | 6.4 | 8.0 | 0.00 | 0.00 | 0.00 | 88 | 1010.1 |
| 20260506144337 | 26 | 129 | 3.2 | 6.4 | 0.00 | 0.00 | 0.00 | 90 | 1010.1 |
| 20260506143401 | 26 | 125 | 3.2 | 9.7 | 0.00 | 0.00 | 0.00 | 90 | 1009.8 |
| 20260506142328 | 25 | 124 | 3.2 | 9.7 | 0.00 | 0.00 | 0.00 | 91 | 1009.5 |
| 20260506141336 | 25 | 131 | 4.8 | 12.9 | 0.00 | 0.00 | 0.00 | 91 | 1009.4 |
| 20260506140340 | 25 | 123 | 3.2 | 9.7 | 0.00 | 0.00 | 0.00 | 92 | 1009.5 |
| 20260506135329 | 25 | 129 | 3.2 | 8.0 | 0.00 | 0.00 | 0.00 | 92 | 1009.6 |
| 20260506134337 | 25 | 111 | 4.8 | 11.3 | 0.00 | 0.00 | 0.00 | 93 | 1009.6 |
| 20260506133326 | 25 | 114 | 6.4 | 14.5 | 0.00 | 0.00 | 0.00 | 93 | 1009.6 |
| 20260506132353 | 25 | 126 | 4.8 | 11.3 | 0.00 | 0.00 | 0.00 | 94 | 1009.6 |
| 20260506131340 | 24 | 127 | 3.2 | 11.3 | 0.00 | 0.00 | 0.00 | 94 | 1009.7 |
| 20260506130323 | 24 | 127 | 3.2 | 6.4 | 0.00 | 0.00 | 0.00 | 94 | 1009.9 |
| 20260506125332 | 24 | 78 | 0.0 | 1.6 | 0.00 | 0.00 | 0.00 | 94 | 1009.8 |
| 20260506124340 | 23 | 117 | 0.0 | 0.0 | 0.00 | 0.00 | 0.00 | 94 | 1009.7 |
| 20260506123326 | 23 | 97 | 0.0 | 0.0 | 0.00 | 0.00 | 0.00 | 94 | 1009.6 |
| 20260506122339 | 23 | 101 | 0.0 | 0.0 | 0.00 | 0.00 | 0.00 | 94 | 1009.5 |
| 20260506121346 | 23 | 119 | 0.0 | 0.0 | 0.00 | 0.00 | 0.00 | 94 | 1009.5 |
| 20260506120329 | 23 | 119 | 0.0 | 3.2 | 0.00 | 0.00 | 0.00 | 94 | 1009.4 |
| 20260506115336 | 23 | 121 | 1.6 | 4.8 | 0.00 | 0.00 | 0.00 | 94 | 1009.2 |
| 20260506114324 | 23 | 121 | 0.0 | 3.2 | 0.00 | 0.00 | 0.00 | 94 | 1009.1 |
| 20260506113328 | 23 | 133 | 1.6 | 4.8 | 0.00 | 0.00 | 0.00 | 94 | 1009.0 |
| 20260506112336 | 23 | 141 | 1.6 | 8.0 | 0.00 | 0.00 | 0.00 | 94 | 1009.0 |
| 20260506111342 | 23 | 127 | 4.8 | 9.7 | 0.00 | 0.00 | 0.00 | 94 | 1008.8 |
| 20260506110329 | 23 | 144 | 1.6 | 6.4 | 0.00 | 0.00 | 0.00 | 94 | 1008.8 |
| 20260506105336 | 23 | 143 | 3.2 | 9.7 | 0.00 | 0.00 | 0.00 | 93 | 1008.6 |
| 20260506104342 | 23 | 134 | 3.2 | 11.3 | 0.00 | 0.00 | 0.00 | 93 | 1008.6 |
| 20260506103325 | 23 | 165 | 6.4 | 14.5 | 0.00 | 0.00 | 0.00 | 93 | 1008.4 |
| 20260506102334 | 23 | 134 | 4.8 | 11.3 | 0.00 | 0.00 | 0.00 | 93 | 1008.4 |
| 20260506101342 | 23 | 136 | 3.2 | 8.0 | 0.00 | 0.00 | 0.00 | 93 | 1008.6 |
| 20260506100327 | 23 | 140 | 4.8 | 9.7 | 0.00 | 0.00 | 0.00 | 93 | 1008.5 |
| 20260506095337 | 23 | 138 | 4.8 | 9.7 | 0.00 | 0.00 | 0.00 | 93 | 1008.4 |
| 20260506094325 | 24 | 145 | 3.2 | 11.3 | 0.00 | 0.00 | 0.00 | 93 | 1008.3 |
| 20260506093327 | 24 | 140 | 6.4 | 11.3 | 0.00 | 0.00 | 0.00 | 93 | 1008.2 |
| 20260506092335 | 24 | 136 | 4.8 | 12.9 | 0.00 | 0.00 | 0.00 | 93 | 1008.3 |
| 20260506091341 | 24 | 138 | 6.4 | 16.1 | 0.00 | 0.00 | 0.00 | 93 | 1008.2 |
| 20260506090327 | 24 | 140 | 3.2 | 9.7 | 0.00 | 0.00 | 0.00 | 93 | 1008.1 |
| 20260506085339 | 24 | 136 | 4.8 | 12.9 | 0.00 | 0.00 | 0.00 | 92 | 1008.1 |
| 20260506084324 | 24 | 138 | 4.8 | 11.3 | 0.00 | 0.00 | 0.00 | 93 | 1008.4 |
| 20260506083325 | 24 | 142 | 3.2 | 6.4 | 0.00 | 0.00 | 0.00 | 93 | 1008.5 |
| 20260506082353 | 24 | 144 | 1.6 | 6.4 | 0.00 | 0.00 | 0.00 | 93 | 1008.5 |
| 20260506081400 | 24 | 153 | 3.2 | 6.4 | 0.00 | 0.00 | 0.00 | 93 | 1008.6 |
| 20260506080341 | 24 | 130 | 1.6 | 4.8 | 0.00 | 0.00 | 0.00 | 93 | 1008.8 |
| 20260506073346 | 24 | 134 | 3.2 | 6.4 | 0.00 | 0.00 | 0.00 | 93 | 1009.0 |
| 20260506072330 | 24 | 132 | 3.2 | 6.4 | 0.00 | 0.00 | 0.00 | 93 | 1009.1 |
| 20260506071338 | 24 | 127 | 0.0 | 8.0 | 0.00 | 0.00 | 0.00 | 92 | 1009.2 |
| 20260506070341 | 24 | 138 | 0.0 | 4.8 | 0.00 | 0.00 | 0.00 | 92 | 1009.4 |
| 20260506062323 | 25 | 140 | 4.8 | 12.9 | 0.00 | 0.00 | 0.00 | 92 | 1009.3 |
| 20260506061334 | 25 | 133 | 4.8 | 11.3 | 0.00 | 0.00 | 0.00 | 91 | 1009.4 |